Location: Maddington
(51.2000°N, 1.9167°W)
Time: 16:00:03
(UTC+00:00)

Cosmos 1125 Rocket - Pass Details

Date: 19 June 2021
Orbit: 757 x 780 km, 74.0° (Epoch: 28 July)

Event Time Altitude Azimuth Distance (km) Brightness Sun altitude
Rises 23:56:54 0° 340° (NNW) 3,239 8.2 -15.3°
Reaches altitude 10° 00:01:28 10° 17° (NNE) 2,316 7.2 -15.4°
Maximum altitude 00:02:49 11° 32° (NNE) 2,253 6.8 -15.4°
Drops below altitude 10° 00:04:11 10° 47° (NE) 2,317 6.6 -15.4°
Sets 00:08:44 0° 83° (E) 3,247 6.8 -15.4°
